| time (UTC) | temp F | wind direction | speed knots | gust knots | rain 1hr in | rain 24hr in | rain mn in | humidity % | barometer mb |
| 20260504024037 | 83 | 244 | 5.2 | 11.3 | 0.00 | 0.00 | 0.00 | 18 | 1004.6 |
| 20260504023537 | 83 | 298 | 3.5 | 14.8 | 0.00 | 0.00 | 0.00 | 18 | 1004.5 |
| 20260504023037 | 84 | 347 | 4.3 | 14.8 | 0.00 | 0.00 | 0.00 | 18 | 1004.5 |
| 20260504022537 | 84 | 209 | 5.2 | 12.2 | 0.00 | 0.00 | 0.00 | 18 | 1004.4 |
| 20260504022036 | 84 | 254 | 4.3 | 12.2 | 0.00 | 0.00 | 0.00 | 17 | 1004.2 |
| 20260504021537 | 85 | 190 | 4.3 | 11.3 | 0.00 | 0.00 | 0.00 | 17 | 1004.3 |
| 20260504021037 | 85 | 271 | 5.2 | 13.0 | 0.00 | 0.00 | 0.00 | 17 | 1004.3 |
| 20260504020536 | 85 | 284 | 4.3 | 13.0 | 0.00 | 0.00 | 0.00 | 16 | 1004.1 |
| 20260504020043 | 85 | 235 | 4.3 | 14.8 | 0.00 | 0.00 | 0.00 | 17 | 1004.0 |
| 20260504015536 | 85 | 268 | 5.2 | 14.8 | 0.00 | 0.00 | 0.00 | 17 | 1004.1 |
| 20260504015036 | 85 | 257 | 3.5 | 15.6 | 0.00 | 0.00 | 0.00 | 17 | 1004.1 |
| 20260504014539 | 86 | 262 | 4.3 | 13.0 | 0.00 | 0.00 | 0.00 | 17 | 1003.9 |
| 20260504014035 | 86 | 243 | 4.3 | 12.2 | 0.00 | 0.00 | 0.00 | 17 | 1003.7 |
| 20260504013536 | 86 | 229 | 3.5 | 11.3 | 0.00 | 0.00 | 0.00 | 17 | 1003.9 |
| 20260504013037 | 87 | 269 | 3.5 | 13.0 | 0.00 | 0.00 | 0.00 | 17 | 1003.8 |
| 20260504012535 | 87 | 286 | 5.2 | 13.9 | 0.00 | 0.00 | 0.00 | 17 | 1003.8 |
| 20260504012037 | 87 | 255 | 6.1 | 12.2 | 0.00 | 0.00 | 0.00 | 17 | 1003.7 |
| 20260504011534 | 87 | 243 | 4.3 | 11.3 | 0.00 | 0.00 | 0.00 | 17 | 1003.8 |
| 20260504011035 | 88 | 307 | 4.3 | 10.4 | 0.00 | 0.00 | 0.00 | 16 | 1003.8 |
| 20260504010534 | 88 | 226 | 4.3 | 10.4 | 0.00 | 0.00 | 0.00 | 16 | 1003.8 |
| 20260504010034 | 89 | 226 | 4.3 | 11.3 | 0.00 | 0.00 | 0.00 | 16 | 1003.8 |
| 20260504005535 | 89 | 277 | 4.3 | 11.3 | 0.00 | 0.00 | 0.00 | 15 | 1003.8 |
| 20260504005035 | 89 | 247 | 5.2 | 11.3 | 0.00 | 0.00 | 0.00 | 15 | 1003.9 |
| 20260504004534 | 90 | 268 | 5.2 | 14.8 | 0.00 | 0.00 | 0.00 | 15 | 1003.8 |
| 20260504004033 | 90 | 223 | 4.3 | 14.8 | 0.00 | 0.00 | 0.00 | 15 | 1003.9 |
| 20260504003532 | 90 | 232 | 4.3 | 13.0 | 0.00 | 0.00 | 0.00 | 15 | 1003.9 |
| 20260504003032 | 90 | 300 | 3.5 | 10.4 | 0.00 | 0.00 | 0.00 | 14 | 1003.9 |
| 20260504002532 | 90 | 265 | 5.2 | 13.0 | 0.00 | 0.00 | 0.00 | 14 | 1003.9 |
| 20260504002032 | 91 | 299 | 6.1 | 13.0 | 0.00 | 0.00 | 0.00 | 14 | 1003.8 |
| 20260504001536 | 91 | 213 | 5.2 | 10.4 | 0.00 | 0.00 | 0.00 | 14 | 1003.9 |
| 20260504001033 | 91 | 224 | 4.3 | 12.2 | 0.00 | 0.00 | 0.00 | 14 | 1003.9 |
| 20260504000533 | 92 | 256 | 4.3 | 12.2 | 0.00 | 0.00 | 0.00 | 13 | 1003.8 |
| 20260504000032 | 92 | 267 | 3.5 | 9.6 | 0.00 | 0.00 | 0.00 | 14 | 1003.8 |
| 20260503235532 | 92 | 223 | 4.3 | 10.4 | 0.00 | 0.00 | 0.00 | 13 | 1003.8 |
| 20260503235032 | 92 | 232 | 3.5 | 12.2 | 0.00 | 0.00 | 0.00 | 13 | 1003.8 |
| 20260503234532 | 92 | 250 | 5.2 | 13.0 | 0.00 | 0.00 | 0.00 | 13 | 1003.9 |
| 20260503234034 | 92 | 279 | 5.2 | 13.0 | 0.00 | 0.00 | 0.00 | 13 | 1003.8 |
| 20260503233532 | 93 | 246 | 4.3 | 10.4 | 0.00 | 0.00 | 0.00 | 13 | 1003.7 |
| 20260503233031 | 93 | 219 | 4.3 | 11.3 | 0.00 | 0.00 | 0.00 | 13 | 1003.7 |
| 20260503232531 | 93 | 202 | 3.5 | 11.3 | 0.00 | 0.00 | 0.00 | 13 | 1003.7 |
| 20260503232032 | 93 | 260 | 4.3 | 12.2 | 0.00 | 0.00 | 0.00 | 13 | 1003.6 |
| 20260503231530 | 93 | 277 | 4.3 | 9.6 | 0.00 | 0.00 | 0.00 | 13 | 1003.6 |
| 20260503231030 | 93 | 286 | 4.3 | 9.6 | 0.00 | 0.00 | 0.00 | 13 | 1003.7 |
| 20260503230530 | 93 | 267 | 4.3 | 9.6 | 0.00 | 0.00 | 0.00 | 13 | 1003.7 |
| 20260503230030 | 93 | 214 | 4.3 | 10.4 | 0.00 | 0.00 | 0.00 | 13 | 1003.9 |
| 20260503225530 | 94 | 295 | 4.3 | 7.8 | 0.00 | 0.00 | 0.00 | 13 | 1003.8 |
| 20260503225029 | 94 | 222 | 3.5 | 7.8 | 0.00 | 0.00 | 0.00 | 13 | 1003.9 |
| 20260503224527 | 94 | 343 | 1.7 | 7.0 | 0.00 | 0.00 | 0.00 | 13 | 1004.0 |
| 20260503224027 | 94 | 232 | 0.9 | 9.6 | 0.00 | 0.00 | 0.00 | 13 | 1004.0 |
| 20260503223526 | 95 | 272 | 3.5 | 9.6 | 0.00 | 0.00 | 0.00 | 13 | 1004.1 |
| 20260503223026 | 95 | 211 | 0.9 | 7.0 | 0.00 | 0.00 | 0.00 | 13 | 1004.2 |
| 20260503222524 | 95 | 293 | 2.6 | 7.0 | 0.00 | 0.00 | 0.00 | 13 | 1004.2 |
| 20260503222025 | 95 | 232 | 1.7 | 5.2 | 0.00 | 0.00 | 0.00 | 14 | 1004.3 |
| 20260503221523 | 94 | 329 | 0.0 | 4.3 | 0.00 | 0.00 | 0.00 | 13 | 1004.4 |
| 20260503221023 | 94 | 262 | 1.7 | 5.2 | 0.00 | 0.00 | 0.00 | 13 | 1004.6 |
| 20260503220521 | 94 | 186 | 0.9 | 6.1 | 0.00 | 0.00 | 0.00 | 13 | 1004.7 |
| 20260503220020 | 94 | 265 | 2.6 | 7.0 | 0.00 | 0.00 | 0.00 | 13 | 1004.9 |
| 20260503215520 | 94 | 277 | 2.6 | 7.0 | 0.00 | 0.00 | 0.00 | 13 | 1004.9 |
| 20260503215018 | 94 | 255 | 3.5 | 7.0 | 0.00 | 0.00 | 0.00 | 13 | 1005.1 |
| 20260503214535 | 94 | 274 | 1.7 | 6.1 | 0.00 | 0.00 | 0.00 | 13 | 1005.1 |
| 20260503214017 | 94 | 167 | 2.6 | 6.1 | 0.00 | 0.00 | 0.00 | 13 | 1005.2 |
| 20260503213516 | 94 | 284 | 1.7 | 7.0 | 0.00 | 0.00 | 0.00 | 13 | 1005.3 |
| 20260503213016 | 94 | 232 | 3.5 | 7.8 | 0.00 | 0.00 | 0.00 | 13 | 1005.4 |
| 20260503212518 | 94 | 266 | 0.9 | 7.8 | 0.00 | 0.00 | 0.00 | 13 | 1005.4 |
| 20260503212017 | 95 | 239 | 2.6 | 7.8 | 0.00 | 0.00 | 0.00 | 13 | 1005.5 |
| 20260503211515 | 95 | 325 | 4.3 | 7.8 | 0.00 | 0.00 | 0.00 | 13 | 1005.5 |
| 20260503211015 | 95 | 144 | 1.7 | 6.1 | 0.00 | 0.00 | 0.00 | 14 | 1005.5 |
| 20260503210514 | 95 | 206 | 1.7 | 7.8 | 0.00 | 0.00 | 0.00 | 13 | 1005.7 |
| 20260503210014 | 95 | 225 | 1.7 | 7.8 | 0.00 | 0.00 | 0.00 | 13 | 1005.7 |
| 20260503205513 | 95 | 244 | 1.7 | 7.8 | 0.00 | 0.00 | 0.00 | 13 | 1005.8 |
| 20260503205012 | 95 | 239 | 3.5 | 7.8 | 0.00 | 0.00 | 0.00 | 14 | 1005.9 |
| 20260503204511 | 94 | 241 | 1.7 | 7.0 | 0.00 | 0.00 | 0.00 | 13 | 1005.9 |
| 20260503204009 | 94 | 267 | 1.7 | 7.0 | 0.00 | 0.00 | 0.00 | 14 | 1006.0 |
| 20260503203508 | 94 | 274 | 2.6 | 8.7 | 0.00 | 0.00 | 0.00 | 13 | 1006.1 |
| 20260503203008 | 94 | 294 | 3.5 | 8.7 | 0.00 | 0.00 | 0.00 | 15 | 1006.2 |
| 20260503202508 | 94 | 144 | 0.0 | 5.2 | 0.00 | 0.00 | 0.00 | 15 | 1006.2 |
| 20260503202007 | 94 | 265 | 1.7 | 7.0 | 0.00 | 0.00 | 0.00 | 14 | 1006.3 |
| 20260503201507 | 94 | 226 | 1.7 | 7.0 | 0.00 | 0.00 | 0.00 | 14 | 1006.4 |
| 20260503201009 | 94 | 242 | 2.6 | 7.0 | 0.00 | 0.00 | 0.00 | 14 | 1006.4 |
| 20260503200505 | 94 | 215 | 1.7 | 6.1 | 0.00 | 0.00 | 0.00 | 14 | 1006.5 |
| 20260503200004 | 94 | 265 | 0.9 | 4.3 | 0.00 | 0.00 | 0.00 | 14 | 1006.6 |
| 20260503195503 | 94 | 253 | 0.9 | 7.0 | 0.00 | 0.00 | 0.00 | 14 | 1006.7 |
| 20260503195002 | 93 | 263 | 2.6 | 7.8 | 0.00 | 0.00 | 0.00 | 14 | 1006.8 |
| 20260503194502 | 94 | 192 | 2.6 | 7.8 | 0.00 | 0.00 | 0.00 | 14 | 1006.8 |
| 20260503194001 | 94 | 201 | 2.6 | 7.8 | 0.00 | 0.00 | 0.00 | 14 | 1006.9 |
| 20260503193601 | 93 | 171 | 1.7 | 7.0 | 0.00 | 0.00 | 0.00 | 15 | 1006.9 |
| 20260503193105 | 94 | 221 | 1.7 | 7.8 | 0.00 | 0.00 | 0.00 | 14 | 1007.0 |
| 20260503192558 | 93 | 229 | 0.9 | 7.8 | 0.00 | 0.00 | 0.00 | 14 | 1007.1 |
| 20260503192057 | 93 | 213 | 0.9 | 5.2 | 0.00 | 0.00 | 0.00 | 14 | 1007.2 |
| 20260503191605 | 93 | 145 | 0.0 | 6.1 | 0.00 | 0.00 | 0.00 | 15 | 1007.3 |
| 20260503191056 | 93 | 148 | 1.7 | 5.2 | 0.00 | 0.00 | 0.00 | 16 | 1007.5 |
| 20260503190555 | 93 | 215 | 1.7 | 5.2 | 0.00 | 0.00 | 0.00 | 16 | 1007.5 |
| 20260503190054 | 93 | 144 | 1.7 | 4.3 | 0.00 | 0.00 | 0.00 | 16 | 1007.4 |
| 20260503185552 | 92 | 192 | 0.9 | 5.2 | 0.00 | 0.00 | 0.00 | 16 | 1007.4 |
| 20260503185051 | 92 | 192 | 0.9 | 5.2 | 0.00 | 0.00 | 0.00 | 18 | 1007.5 |
| 20260503184600 | 92 | 163 | 1.7 | 5.2 | 0.00 | 0.00 | 0.00 | 18 | 1007.6 |
| 20260503184049 | 91 | 168 | 1.7 | 5.2 | 0.00 | 0.00 | 0.00 | 17 | 1007.8 |
| 20260503183549 | 90 | 189 | 0.9 | 4.3 | 0.00 | 0.00 | 0.00 | 19 | 1007.9 |
| 20260503183046 | 90 | 112 | 1.7 | 5.2 | 0.00 | 0.00 | 0.00 | 19 | 1008.0 |
| 20260503182545 | 90 | 355 | 0.9 | 7.0 | 0.00 | 0.00 | 0.00 | 21 | 1008.0 |
| 20260503182044 | 89 | 97 | 2.6 | 7.0 | 0.00 | 0.00 | 0.00 | 20 | 1008.2 |
| 20260503181607 | 89 | 185 | 2.6 | 7.8 | 0.00 | 0.00 | 0.00 | 20 | 1008.2 |
| 20260503181042 | 89 | 244 | 0.9 | 7.8 | 0.00 | 0.00 | 0.00 | 22 | 1008.2 |
| 20260503180541 | 89 | 109 | 1.7 | 6.1 | 0.00 | 0.00 | 0.00 | 20 | 1008.3 |
| 20260503180050 | 88 | 220 | 0.9 | 7.0 | 0.00 | 0.00 | 0.00 | 22 | 1008.5 |
| 20260503175538 | 88 | 90 | 2.6 | 7.8 | 0.00 | 0.00 | 0.00 | 22 | 1008.5 |
| 20260503175037 | 87 | 138 | 2.6 | 7.8 | 0.00 | 0.00 | 0.00 | 23 | 1008.6 |
| 20260503174545 | 87 | 95 | 2.6 | 7.8 | 0.00 | 0.00 | 0.00 | 22 | 1008.6 |
| 20260503174035 | 86 | 116 | 2.6 | 7.0 | 0.00 | 0.00 | 0.00 | 24 | 1008.6 |
| 20260503173533 | 86 | 136 | 1.7 | 7.8 | 0.00 | 0.00 | 0.00 | 24 | 1008.7 |
| 20260503173041 | 85 | 78 | 0.9 | 7.8 | 0.00 | 0.00 | 0.00 | 25 | 1008.8 |
| 20260503172530 | 85 | 162 | 2.6 | 7.0 | 0.00 | 0.00 | 0.00 | 25 | 1008.8 |
| 20260503172031 | 84 | 107 | 2.6 | 7.0 | 0.00 | 0.00 | 0.00 | 26 | 1008.8 |
| 20260503171527 | 84 | 72 | 2.6 | 9.6 | 0.00 | 0.00 | 0.00 | 26 | 1008.9 |
| 20260503171029 | 83 | 86 | 1.7 | 9.6 | 0.00 | 0.00 | 0.00 | 27 | 1008.9 |
| 20260503170530 | 83 | 130 | 2.6 | 7.0 | 0.00 | 0.00 | 0.00 | 27 | 1008.9 |
| 20260503151004 | 78 | 50 | 1.7 | 7.0 | 0.00 | 0.00 | 0.00 | 31 | 1008.7 |
| 20260503150507 | 78 | 81 | 3.5 | 7.0 | 0.00 | 0.00 | 0.00 | 30 | 1008.7 |
| 20260503131042 | 77 | 56 | 3.5 | 7.8 | 0.00 | 0.00 | 0.00 | 29 | 1007.8 |
| 20260503130541 | 77 | 45 | 3.5 | 7.8 | 0.00 | 0.00 | 0.00 | 28 | 1007.8 |
| 20260503110535 | 78 | 54 | 2.6 | 5.2 | 0.00 | 0.00 | 0.00 | 24 | 1007.7 |
| 20260503081535 | 76 | 35 | 0.0 | 2.6 | 0.00 | 0.00 | 0.00 | 24 | 1007.9 |
| 20260503081019 | 76 | 17 | 0.0 | 3.5 | 0.00 | 0.00 | 0.00 | 23 | 1008.0 |
| 20260503080519 | 76 | 5 | 0.0 | 3.5 | 0.00 | 0.00 | 0.00 | 22 | 1008.1 |
| 20260503072519 | 76 | 125 | 1.7 | 6.1 | 0.00 | 0.00 | 0.00 | 23 | 1008.3 |
| 20260503072015 | 76 | 104 | 0.0 | 0.0 | 0.00 | 0.00 | 0.00 | 24 | 1008.1 |
| 20260503071514 | 76 | 33 | 0.0 | 0.0 | 0.00 | 0.00 | 0.00 | 25 | 1007.9 |
| 20260503071013 | 76 | 33 | 0.0 | 0.0 | 0.00 | 0.00 | 0.00 | 25 | 1007.9 |
| 20260503070512 | 76 | 33 | 0.0 | 0.0 | 0.00 | 0.00 | 0.00 | 26 | 1007.8 |
| 20260503055009 | 76 | 360 | 0.0 | 1.7 | 0.00 | 0.00 | 0.00 | 28 | 1007.5 |
| 20260503054515 | 77 | 37 | 0.0 | 1.7 | 0.00 | 0.00 | 0.00 | 28 | 1007.4 |
| 20260503054009 | 77 | 11 | 0.0 | 1.7 | 0.00 | 0.00 | 0.00 | 30 | 1007.5 |
| 20260503053509 | 77 | 344 | 0.0 | 1.7 | 0.00 | 0.00 | 0.00 | 25 | 1007.5 |
| 20260503053010 | 77 | 344 | 0.0 | 1.7 | 0.00 | 0.00 | 0.00 | 27 | 1007.6 |
| 20260503052509 | 77 | 344 | 0.0 | 0.0 | 0.00 | 0.00 | 0.00 | 28 | 1007.6 |
| 20260503052009 | 77 | 344 | 0.0 | 1.7 | 0.00 | 0.00 | 0.00 | 27 | 1007.5 |
| 20260503051517 | 77 | 344 | 0.0 | 1.7 | 0.00 | 0.00 | 0.00 | 27 | 1007.4 |
| 20260503051008 | 77 | 344 | 0.0 | 1.7 | 0.00 | 0.00 | 0.00 | 28 | 1007.4 |
| 20260503050508 | 77 | 355 | 0.0 | 1.7 | 0.00 | 0.00 | 0.00 | 29 | 1007.5 |
| 20260503050008 | 77 | 24 | 0.0 | 1.7 | 0.00 | 0.00 | 0.00 | 28 | 1007.5 |
| 20260503045507 | 77 | 10 | 0.0 | 0.0 | 0.00 | 0.00 | 0.00 | 32 | 1007.5 |
| 20260503045008 | 77 | 10 | 0.0 | 1.7 | 0.00 | 0.00 | 0.00 | 28 | 1007.6 |
| 20260503044508 | 77 | 10 | 0.0 | 1.7 | 0.00 | 0.00 | 0.00 | 27 | 1007.5 |
| 20260503044007 | 77 | 10 | 0.0 | 1.7 | 0.00 | 0.00 | 0.00 | 25 | 1007.6 |
| 20260503043508 | 77 | 10 | 0.0 | 1.7 | 0.00 | 0.00 | 0.00 | 31 | 1007.5 |
| 20260503043007 | 77 | 10 | 0.0 | 1.7 | 0.00 | 0.00 | 0.00 | 29 | 1007.4 |
| 20260503042507 | 77 | 33 | 0.0 | 1.7 | 0.00 | 0.00 | 0.00 | 31 | 1007.4 |
| 20260503042007 | 77 | 33 | 0.0 | 1.7 | 0.00 | 0.00 | 0.00 | 26 | 1007.3 |
| 20260503041506 | 77 | 37 | 0.0 | 1.7 | 0.00 | 0.00 | 0.00 | 28 | 1007.2 |
| 20260503041010 | 77 | 37 | 0.0 | 1.7 | 0.00 | 0.00 | 0.00 | 30 | 1007.2 |
| 20260503040506 | 78 | 37 | 0.9 | 1.7 | 0.00 | 0.00 | 0.00 | 29 | 1007.1 |
| 20260503040006 | 78 | 28 | 0.0 | 1.7 | 0.00 | 0.00 | 0.00 | 31 | 1007.1 |
| 20260503035505 | 79 | 37 | 0.0 | 1.7 | 0.00 | 0.00 | 0.00 | 25 | 1006.9 |
| 20260503035005 | 79 | 40 | 0.9 | 1.7 | 0.00 | 0.00 | 0.00 | 28 | 1006.8 |
| 20260503034506 | 80 | 36 | 0.0 | 1.7 | 0.00 | 0.00 | 0.00 | 26 | 1006.9 |
| 20260503034004 | 81 | 28 | 0.0 | 0.9 | 0.00 | 0.00 | 0.00 | 27 | 1006.8 |
| 20260503033507 | 81 | 42 | 0.0 | 0.9 | 0.00 | 0.00 | 0.00 | 19 | 1006.8 |
| 20260503033010 | 81 | 42 | 0.0 | 0.9 | 0.00 | 0.00 | 0.00 | 21 | 1006.7 |
| 20260503032506 | 82 | 42 | 0.0 | 1.7 | 0.00 | 0.00 | 0.00 | 21 | 1006.7 |
| 20260503032004 | 82 | 32 | 0.0 | 1.7 | 0.00 | 0.00 | 0.00 | 23 | 1006.7 |
| 20260503031504 | 83 | 13 | 0.0 | 2.6 | 0.00 | 0.00 | 0.00 | 21 | 1006.5 |
| 20260503031004 | 83 | 5 | 0.0 | 2.6 | 0.00 | 0.00 | 0.00 | 21 | 1006.5 |
| 20260503030505 | 83 | 360 | 0.0 | 2.6 | 0.00 | 0.00 | 0.00 | 20 | 1006.4 |
| 20260503030007 | 83 | 28 | 0.9 | 2.6 | 0.00 | 0.00 | 0.00 | 18 | 1006.3 |
| 20260503025503 | 84 | 39 | 0.9 | 1.7 | 0.00 | 0.00 | 0.00 | 18 | 1006.4 |
| 20260503025003 | 84 | 35 | 0.9 | 1.7 | 0.00 | 0.00 | 0.00 | 18 | 1006.4 |
| 20260503024503 | 84 | 9 | 0.0 | 1.7 | 0.00 | 0.00 | 0.00 | 20 | 1006.3 |